| time (UTC) | temp F | wind direction | speed MPH | gust MPH | rain 1hr in | rain 24hr in | rain mn in | humidity % | barometer mb |
| 20260507174834 | 91 | 0 | 0.0 | 0.0 | 0.00 | 0.00 | 0.00 | 59 | 976.0 |
| 20260507173810 | 90 | 0 | 0.0 | 0.0 | 0.00 | 0.00 | 0.00 | 60 | 976.0 |
| 20260507172744 | 91 | 0 | 0.0 | 0.0 | 0.00 | 0.00 | 0.00 | 60 | 976.0 |
| 20260507171720 | 91 | 0 | 0.0 | 0.0 | 0.00 | 0.00 | 0.00 | 60 | 976.0 |
| 20260507170654 | 91 | 0 | 0.0 | 0.0 | 0.00 | 0.00 | 0.00 | 59 | 976.0 |
| 20260507165628 | 92 | 0 | 0.0 | 0.0 | 0.00 | 0.00 | 0.00 | 58 | 976.0 |
| 20260507164603 | 90 | 0 | 0.0 | 0.0 | 0.00 | 0.00 | 0.00 | 60 | 976.0 |
| 20260507163537 | 90 | 0 | 0.0 | 0.0 | 0.00 | 0.00 | 0.00 | 61 | 977.0 |
| 20260507162513 | 90 | 0 | 0.0 | 0.0 | 0.00 | 0.00 | 0.00 | 62 | 977.0 |
| 20260507161448 | 89 | 0 | 0.0 | 0.0 | 0.00 | 0.00 | 0.00 | 64 | 976.0 |
| 20260507160423 | 90 | 0 | 0.0 | 0.0 | 0.00 | 0.00 | 0.00 | 62 | 976.0 |
| 20260507155358 | 90 | 0 | 0.0 | 0.0 | 0.00 | 0.00 | 0.00 | 63 | 977.0 |
| 20260507154333 | 90 | 0 | 0.0 | 0.0 | 0.00 | 0.00 | 0.00 | 61 | 976.0 |
| 20260507153912 | 90 | 0 | 0.0 | 0.0 | 0.00 | 0.00 | 0.00 | 61 | 977.0 |
| 20260507144738 | 91 | 0 | 0.0 | 0.0 | 0.00 | 0.00 | 0.00 | 54 | 975.0 |
| 20260507143713 | 93 | 0 | 0.0 | 0.0 | 0.00 | 0.00 | 0.00 | 51 | 975.0 |
| 20260507142648 | 94 | 0 | 0.0 | 0.0 | 0.00 | 0.00 | 0.00 | 50 | 975.0 |
| 20260507141622 | 95 | 0 | 0.0 | 0.0 | 0.00 | 0.00 | 0.00 | 49 | 975.0 |
| 20260507140557 | 95 | 0 | 0.0 | 0.0 | 0.00 | 0.00 | 0.00 | 48 | 974.0 |
| 20260507135531 | 97 | 0 | 0.0 | 0.0 | 0.00 | 0.00 | 0.00 | 42 | 974.0 |
| 20260507134507 | 97 | 0 | 0.0 | 0.0 | 0.00 | 0.00 | 0.00 | 43 | 973.0 |
| 20260507133442 | 97 | 0 | 0.0 | 0.0 | 0.00 | 0.00 | 0.00 | 43 | 973.0 |
| 20260507132417 | 97 | 0 | 0.0 | 0.0 | 0.00 | 0.00 | 0.00 | 43 | 973.0 |
| 20260507131352 | 98 | 0 | 0.0 | 0.0 | 0.00 | 0.00 | 0.00 | 41 | 972.0 |
| 20260507130327 | 98 | 0 | 0.0 | 0.0 | 0.00 | 0.00 | 0.00 | 41 | 972.0 |
| 20260507125301 | 98 | 0 | 0.0 | 0.0 | 0.00 | 0.00 | 0.00 | 41 | 972.0 |
| 20260507124234 | 97 | 0 | 0.0 | 0.0 | 0.00 | 0.00 | 0.00 | 42 | 972.0 |
| 20260507123207 | 98 | 0 | 0.0 | 0.0 | 0.00 | 0.00 | 0.00 | 40 | 972.0 |
| 20260507122138 | 98 | 0 | 0.0 | 0.0 | 0.00 | 0.00 | 0.00 | 40 | 972.0 |
| 20260507121106 | 101 | 0 | 0.0 | 0.0 | 0.00 | 0.00 | 0.00 | 38 | 971.0 |
| 20260507120039 | 100 | 0 | 0.0 | 0.0 | 0.00 | 0.00 | 0.00 | 38 | 971.0 |
| 20260507115014 | 102 | 0 | 0.0 | 0.0 | 0.00 | 0.00 | 0.00 | 36 | 970.0 |
| 20260507113947 | 102 | 0 | 0.0 | 0.0 | 0.00 | 0.00 | 0.00 | 36 | 970.0 |
| 20260507112921 | 102 | 0 | 0.0 | 0.0 | 0.00 | 0.00 | 0.00 | 36 | 970.0 |
| 20260507111854 | 102 | 0 | 0.0 | 0.0 | 0.00 | 0.00 | 0.00 | 35 | 970.0 |
| 20260507110828 | 104 | 0 | 0.0 | 0.0 | 0.00 | 0.00 | 0.00 | 32 | 969.0 |
| 20260507105802 | 106 | 0 | 0.0 | 0.0 | 0.00 | 0.00 | 0.00 | 30 | 969.0 |
| 20260507104737 | 105 | 0 | 0.0 | 0.0 | 0.00 | 0.00 | 0.00 | 31 | 969.0 |
| 20260507103711 | 106 | 0 | 0.0 | 0.0 | 0.00 | 0.00 | 0.00 | 31 | 969.0 |
| 20260507102645 | 107 | 0 | 0.0 | 0.0 | 0.00 | 0.00 | 0.00 | 32 | 968.0 |
| 20260507101619 | 106 | 0 | 0.0 | 0.0 | 0.00 | 0.00 | 0.00 | 33 | 968.0 |
| 20260507100554 | 106 | 0 | 0.0 | 0.0 | 0.00 | 0.00 | 0.00 | 33 | 969.0 |
| 20260507095529 | 106 | 0 | 0.0 | 0.0 | 0.00 | 0.00 | 0.00 | 33 | 969.0 |
| 20260507094503 | 105 | 0 | 0.0 | 0.0 | 0.00 | 0.00 | 0.00 | 33 | 969.0 |
| 20260507093438 | 103 | 0 | 0.0 | 0.0 | 0.00 | 0.00 | 0.00 | 34 | 969.0 |
| 20260507092413 | 104 | 0 | 0.0 | 0.0 | 0.00 | 0.00 | 0.00 | 35 | 969.0 |
| 20260507091346 | 103 | 0 | 0.0 | 0.0 | 0.00 | 0.00 | 0.00 | 35 | 969.0 |
| 20260507090321 | 106 | 0 | 0.0 | 0.0 | 0.00 | 0.00 | 0.00 | 34 | 969.0 |
| 20260507085257 | 108 | 0 | 0.0 | 0.0 | 0.00 | 0.00 | 0.00 | 31 | 969.0 |
| 20260507084231 | 109 | 0 | 0.0 | 0.0 | 0.00 | 0.00 | 0.00 | 30 | 969.0 |
| 20260507083204 | 110 | 0 | 0.0 | 0.0 | 0.00 | 0.00 | 0.00 | 29 | 969.0 |
| 20260507082139 | 111 | 0 | 0.0 | 0.0 | 0.00 | 0.00 | 0.00 | 29 | 969.0 |
| 20260507081113 | 110 | 0 | 0.0 | 0.0 | 0.00 | 0.00 | 0.00 | 29 | 969.0 |
| 20260507080050 | 111 | 0 | 0.0 | 0.0 | 0.00 | 0.00 | 0.00 | 29 | 969.0 |
| 20260507075024 | 111 | 0 | 0.0 | 0.0 | 0.00 | 0.00 | 0.00 | 28 | 969.0 |
| 20260507073958 | 112 | 0 | 0.0 | 0.0 | 0.00 | 0.00 | 0.00 | 28 | 970.0 |
| 20260507072934 | 112 | 0 | 0.0 | 0.0 | 0.00 | 0.00 | 0.00 | 29 | 970.0 |
| 20260507071908 | 109 | 0 | 0.0 | 0.0 | 0.00 | 0.00 | 0.00 | 30 | 970.0 |
| 20260507070844 | 111 | 0 | 0.0 | 0.0 | 0.00 | 0.00 | 0.00 | 29 | 970.0 |
| 20260507065818 | 111 | 0 | 0.0 | 0.0 | 0.00 | 0.00 | 0.00 | 29 | 971.0 |
| 20260507064753 | 111 | 0 | 0.0 | 0.0 | 0.00 | 0.00 | 0.00 | 30 | 971.0 |
| 20260507063728 | 110 | 0 | 0.0 | 0.0 | 0.00 | 0.00 | 0.00 | 30 | 971.0 |
| 20260507062702 | 112 | 0 | 0.0 | 0.0 | 0.00 | 0.00 | 0.00 | 29 | 971.0 |
| 20260507061635 | 110 | 0 | 0.0 | 0.0 | 0.00 | 0.00 | 0.00 | 31 | 971.0 |
| 20260507060609 | 109 | 0 | 0.0 | 0.0 | 0.00 | 0.00 | 0.00 | 31 | 972.0 |
| 20260507055543 | 110 | 0 | 0.0 | 0.0 | 0.00 | 0.00 | 0.00 | 31 | 972.0 |
| 20260507054514 | 110 | 0 | 0.0 | 0.0 | 0.00 | 0.00 | 0.00 | 32 | 972.0 |
| 20260507053447 | 108 | 0 | 0.0 | 0.0 | 0.00 | 0.00 | 0.00 | 33 | 973.0 |
| 20260507052420 | 107 | 0 | 0.0 | 0.0 | 0.00 | 0.00 | 0.00 | 35 | 973.0 |
| 20260507051354 | 106 | 0 | 0.0 | 0.0 | 0.00 | 0.00 | 0.00 | 36 | 973.0 |
| 20260507050328 | 107 | 0 | 0.0 | 0.0 | 0.00 | 0.00 | 0.00 | 35 | 973.0 |
| 20260507045301 | 105 | 0 | 0.0 | 0.0 | 0.00 | 0.00 | 0.00 | 37 | 973.0 |
| 20260507044234 | 105 | 0 | 0.0 | 0.0 | 0.00 | 0.00 | 0.00 | 38 | 974.0 |
| 20260507043206 | 104 | 0 | 0.0 | 0.0 | 0.00 | 0.00 | 0.00 | 39 | 974.0 |
| 20260507042140 | 104 | 0 | 0.0 | 0.0 | 0.00 | 0.00 | 0.00 | 38 | 974.0 |
| 20260507041114 | 104 | 0 | 0.0 | 0.0 | 0.00 | 0.00 | 0.00 | 38 | 974.0 |
| 20260507040049 | 103 | 0 | 0.0 | 0.0 | 0.00 | 0.00 | 0.00 | 39 | 974.0 |
| 20260507035020 | 102 | 0 | 0.0 | 0.0 | 0.00 | 0.00 | 0.00 | 40 | 974.0 |
| 20260507033956 | 104 | 0 | 0.0 | 0.0 | 0.00 | 0.00 | 0.00 | 39 | 974.0 |
| 20260507032931 | 101 | 0 | 0.0 | 0.0 | 0.00 | 0.00 | 0.00 | 42 | 974.0 |
| 20260507031906 | 101 | 0 | 0.0 | 0.0 | 0.00 | 0.00 | 0.00 | 42 | 974.0 |
| 20260507030841 | 100 | 0 | 0.0 | 0.0 | 0.00 | 0.00 | 0.00 | 43 | 975.0 |
| 20260507025816 | 100 | 0 | 0.0 | 0.0 | 0.00 | 0.00 | 0.00 | 44 | 975.0 |
| 20260507024751 | 100 | 0 | 0.0 | 0.0 | 0.00 | 0.00 | 0.00 | 44 | 975.0 |
| 20260507023725 | 98 | 0 | 0.0 | 0.0 | 0.00 | 0.00 | 0.00 | 46 | 975.0 |
| 20260507022700 | 97 | 0 | 0.0 | 0.0 | 0.00 | 0.00 | 0.00 | 48 | 975.0 |
| 20260507021633 | 97 | 0 | 0.0 | 0.0 | 0.00 | 0.00 | 0.00 | 48 | 975.0 |
| 20260507020606 | 95 | 0 | 0.0 | 0.0 | 0.00 | 0.00 | 0.00 | 50 | 975.0 |
| 20260507015539 | 96 | 0 | 0.0 | 0.0 | 0.00 | 0.00 | 0.00 | 49 | 975.0 |
| 20260507014515 | 95 | 0 | 0.0 | 0.0 | 0.00 | 0.00 | 0.00 | 50 | 975.0 |
| 20260507013449 | 95 | 0 | 0.0 | 0.0 | 0.00 | 0.00 | 0.00 | 51 | 975.0 |
| 20260507012423 | 93 | 0 | 0.0 | 0.0 | 0.00 | 0.00 | 0.00 | 54 | 975.0 |
| 20260507011357 | 90 | 0 | 0.0 | 0.0 | 0.00 | 0.00 | 0.00 | 58 | 975.0 |
| 20260507010331 | 89 | 0 | 0.0 | 0.0 | 0.00 | 0.00 | 0.00 | 60 | 975.0 |
| 20260507005306 | 91 | 0 | 0.0 | 0.0 | 0.00 | 0.00 | 0.00 | 59 | 975.0 |
| 20260507004240 | 90 | 0 | 0.0 | 0.0 | 0.00 | 0.00 | 0.00 | 60 | 975.0 |
| 20260507003214 | 89 | 0 | 0.0 | 0.0 | 0.00 | 0.00 | 0.00 | 62 | 975.0 |
| 20260507002148 | 87 | 0 | 0.0 | 0.0 | 0.00 | 0.00 | 0.00 | 65 | 975.0 |
| 20260507001412 | 88 | 0 | 0.0 | 0.0 | 0.00 | 0.00 | 0.00 | 62 | 975.0 |
| 20260507000346 | 88 | 0 | 0.0 | 0.0 | 0.00 | 0.00 | 0.00 | 63 | 975.0 |
| 20260506235322 | 88 | 0 | 0.0 | 0.0 | 0.00 | 0.00 | 0.00 | 64 | 975.0 |
| 20260506234255 | 88 | 0 | 0.0 | 0.0 | 0.00 | 0.00 | 0.00 | 64 | 975.0 |
| 20260506232619 | 88 | 0 | 0.0 | 0.0 | 0.00 | 0.00 | 0.00 | 64 | 975.0 |
| 20260506230604 | 90 | 0 | 0.0 | 0.0 | 0.00 | 0.00 | 0.00 | 60 | 974.0 |
| 20260506225537 | 90 | 0 | 0.0 | 0.0 | 0.00 | 0.00 | 0.00 | 60 | 974.0 |
| 20260506224512 | 90 | 0 | 0.0 | 0.0 | 0.00 | 0.00 | 0.00 | 59 | 974.0 |
| 20260506223447 | 90 | 0 | 0.0 | 0.0 | 0.00 | 0.00 | 0.00 | 60 | 974.0 |
| 20260506222422 | 90 | 0 | 0.0 | 0.0 | 0.00 | 0.00 | 0.00 | 60 | 974.0 |
| 20260506221356 | 90 | 0 | 0.0 | 0.0 | 0.00 | 0.00 | 0.00 | 60 | 974.0 |
| 20260506220331 | 89 | 0 | 0.0 | 0.0 | 0.00 | 0.00 | 0.00 | 60 | 974.0 |
| 20260506215307 | 89 | 0 | 0.0 | 0.0 | 0.00 | 0.00 | 0.00 | 61 | 974.0 |
| 20260506214241 | 89 | 0 | 0.0 | 0.0 | 0.00 | 0.00 | 0.00 | 61 | 974.0 |
| 20260506213216 | 91 | 0 | 0.0 | 0.0 | 0.00 | 0.00 | 0.00 | 59 | 974.0 |
| 20260506212150 | 90 | 0 | 0.0 | 0.0 | 0.00 | 0.00 | 0.00 | 60 | 974.0 |
| 20260506211125 | 90 | 0 | 0.0 | 0.0 | 0.00 | 0.00 | 0.00 | 59 | 974.0 |
| 20260506210101 | 90 | 0 | 0.0 | 0.0 | 0.00 | 0.00 | 0.00 | 60 | 973.0 |
| 20260506205036 | 90 | 0 | 0.0 | 0.0 | 0.00 | 0.00 | 0.00 | 59 | 973.0 |
| 20260506204011 | 89 | 0 | 0.0 | 0.0 | 0.00 | 0.00 | 0.00 | 61 | 973.0 |
| 20260506202946 | 89 | 0 | 0.0 | 0.0 | 0.00 | 0.00 | 0.00 | 61 | 973.0 |
| 20260506201920 | 88 | 0 | 0.0 | 0.0 | 0.00 | 0.00 | 0.00 | 62 | 973.0 |
| 20260506200856 | 90 | 0 | 0.0 | 0.0 | 0.00 | 0.00 | 0.00 | 60 | 973.0 |
| 20260506195830 | 90 | 0 | 0.0 | 0.0 | 0.00 | 0.00 | 0.00 | 60 | 973.0 |
| 20260506194805 | 90 | 0 | 0.0 | 0.0 | 0.00 | 0.00 | 0.00 | 60 | 973.0 |
| 20260506193740 | 88 | 0 | 0.0 | 0.0 | 0.00 | 0.00 | 0.00 | 63 | 973.0 |
| 20260506192715 | 89 | 0 | 0.0 | 0.0 | 0.00 | 0.00 | 0.00 | 61 | 973.0 |
| 20260506191648 | 89 | 0 | 0.0 | 0.0 | 0.00 | 0.00 | 0.00 | 61 | 973.0 |
| 20260506190251 | 90 | 0 | 0.0 | 0.0 | 0.00 | 0.00 | 0.00 | 57 | 973.0 |
| 20260506185226 | 91 | 0 | 0.0 | 0.0 | 0.00 | 0.00 | 0.00 | 56 | 973.0 |
| 20260506184201 | 90 | 0 | 0.0 | 0.0 | 0.00 | 0.00 | 0.00 | 57 | 973.0 |
| 20260506183135 | 91 | 0 | 0.0 | 0.0 | 0.00 | 0.00 | 0.00 | 55 | 973.0 |
| 20260506182110 | 92 | 0 | 0.0 | 0.0 | 0.00 | 0.00 | 0.00 | 53 | 973.0 |
| 20260506181045 | 93 | 0 | 0.0 | 0.0 | 0.00 | 0.00 | 0.00 | 52 | 973.0 |
| 20260506180020 | 93 | 0 | 0.0 | 0.0 | 0.00 | 0.00 | 0.00 | 51 | 973.0 |